Location: Rotheul
(50.2849°N, 11.2349°E)
Time: 09:49:59
(UTC+02:00)

ISS - Pass Details

Date: 26 May 2018
Orbit: 402 x 407 km, 51.6° (Epoch: 27 May)

Event Time Altitude Azimuth Distance (km) Brightness Sun altitude
Rises 22:43:14 0° 267° (W) 2,319 0.5 -11.3°
Reaches altitude 10° 22:45:19 10° 269° (W) 1,459 -0.5 -11.5°
Maximum altitude 22:48:35 70° 354° (N) 434 -3.5 -11.8°
Drops below altitude 10° 22:51:50 10° 79° (E) 1,459 -1.2 -12.1°
Enters shadow 22:53:48 - 82° (E) 2,269 -0.3 -12.2°
